Other Public Products
Issued by NWS Grand Forks, ND

Home | Current Version | Previous Version | Text Only | Print | Product List | Glossary On
Versions: 1 2 3 4 5 6 7 8 9 10 11 12 13 14 15 16 17 18 19 20 21 22 23 24 25 26 27 28 29 30 31 32 33 34 35 36 37 38 39 40 41 42 43 44 45 46 47 48 49 50
000
FPUS83 KFGF 242131
OPUFGF
PRAIRIE TO PINES WEATHER ROUNDUP
NATIONAL WEATHER SERVICE EASTERN NORTH DAKOTA/GRAND FORKS ND
300 PM CST FRI NOV 24 2017

 **SATELLITE DATA USED TO AUGMENT SKY COVER AT AUTOMATED STATIONS**
 *****  WEATHER ACROSS EASTERN NORTH DAKOTA  *****

CITY           SKY/WX    TMP DP  RH WIND       PRES   REMARKS
GRAND FORKS    FAIR      46  37  71 NW15      29.51R
GRND FORKS AFB FAIR      46  35  64 NW17G24   29.52R
GRND FORKS NWS   N/A     43 N/A N/A NW7         N/A
BUXTON           N/A     45  37  72 W14         N/A
DEVILS LAKE    FAIR      45  35  68 W17G25    29.56R
FARGO          FAIR      50  35  56 NW22G32   29.55R
WAHPETON ARPT  NOT AVBL
$$

 *****  WEATHER ACROSS CENTRAL AND WESTERN NORTH DAKOTA  *****

CITY           SKY/WX    TMP DP  RH WIND       PRES   REMARKS
JAMESTOWN      FAIR      50  38  63 NW23G29   29.60R
BISMARCK       FAIR      55  35  47 NW16G28   29.70R
MINOT          FAIR      51  31  46 W29G35    29.64R
MINOT AFB      FAIR      48  31  50 NW32G40   29.62R
GARRISON         N/A     50  35  56 NW18G31   29.68R
WILLISTON      FAIR      53  29  39 NW24G32   29.73R
DICKINSON      FAIR      51  31  46 NW20      29.73S
HETTINGER      FAIR      51  33  50 NW16G26   29.78R
$$

 *****  OTHER OBSERVATIONS NORTHEAST NORTH DAKOTA  *****

CITY           SKY/WX    TMP DP  RH WIND       PRES   REMARKS
WALHALLA       FAIR      43  34  70 NW22G32   29.51R
LANGDON        FAIR      43  37  81 NW21G28   29.53R
CAVALIER       FAIR      43  34  70 NW18G26   29.50R
GRAFTON        FAIR      43  36  75 NW13      29.53R
CANDO          FAIR      46  34  61 W21       29.58R
FORT TOTTEN    NOT AVBL
ROLLA          MOCLDY    43  32  65 NW26G37   29.56R
RUGBY          FAIR      46  34  61 NW22G33   29.59R
 ***** THE ABOVE OBSERVATIONS ARE NON NWS ARE NOT QUALITY
        CONTROLLED AND MAY MIS-REPORT RAIN FOR SNOW...
$$

 *****  OTHER OBSERVATIONS SOUTHEAST NORTH DAKOTA *****

CITY           SKY/WX    TMP DP  RH WIND       PRES   REMARKS
COOPERSTOWN    FAIR      46  37  71 W18       29.59R
VALLEY CITY    FAIR      48  37  66 NW21G29   29.62R
OAKES            N/A     50  37  62 NW21G33   29.64R
GWINNER          N/A     52  34  50 NW21G36   29.62R
SHEYENNE NWR     N/A     52  35  53 NW20      29.95S
BUFFALO          N/A     47  30  52 W21G32      N/A
WYNDMERE       NOT AVBL
 ***** THE ABOVE OBSERVATIONS ARE NON NWS ARE NOT QUALITY
       CONTROLLED AND MAY MIS-REPORT RAIN FOR SNOW...
$$

  *****  WEATHER ACROSS NORTHERN MINNESOTA  *****

CITY           SKY/WX    TMP DP  RH WIND       PRES   REMARKS
FLAG ISLAND    CLOUDY    37  30  75 NW20      29.40R
WARROAD        FAIR      39  32  75 W16       29.43R
ROSEAU         FAIR      41  34  75 NW16      29.45R
HALLOCK        FAIR      41  36  81 NW15      29.49R
THF RVR FALLS  FAIR      41  34  76 NW16      29.50R
HALSTAD          N/A     46  37  73 NW16        N/A
FOSSTON        FAIR      41  34  75 NW17G24   29.51R
BAUDETTE       CLOUDY    39  31  72 NW14      29.40R
WASKISH        FAIR      39  34  81 W10       29.42R
CROOKSTON      FAIR      45  37  76 NW14      29.53R
$$
  *****  WEATHER ACROSS CENTRAL AND WEST MINNESOTA  *****

CITY           SKY/WX    TMP DP  RH WIND       PRES   REMARKS
BEMIDJI        CLOUDY    40  35  81 W13G25    29.46R
PARK RAPIDS    FAIR      45  37  73 NW20G31   29.45R
WADENA         FAIR      45  37  76 NW14G20   29.49R
DETROIT LAKES  FAIR      45  36  70 NW22G29   29.54R
MOORHEAD       FAIR      48  36  61 NW23      29.56R
FERGUS FALLS   FAIR      48  37  66 NW20G30   29.57R
ELBOW LAKE     FAIR      47  40  76 NW14G20   29.55R HAZE
MORRIS MN      FAIR      50  39  66 NW17G25   29.55R
STAPLES        FAIR      45  36  70 NW13G20   29.48R
WHEATON        FAIR      52  36  54 NW20      29.59R
$$
  *****  WEATHER ELSEWHERE ACROSS MINNESOTA  *****

CITY           SKY/WX    TMP DP  RH WIND       PRES   REMARKS
DULUTH         CLOUDY    40  40 100 NW10      29.34R
INTRNTL FALLS  MOCLDY    40  31  70 NW12      29.36R
ELY            FAIR      39  36  87 W6        29.33R
CLOQUET        FAIR      43  39  87 W9        29.38R
BRAINERD       FAIR      47  40  76 W13       29.45R
HIBBING        FAIR      39  36  89 W6        29.36R
ALEXANDRIA     FAIR      46  38  73 NW20G28   29.52R
SAINT CLOUD    PTSUNNY   48  40  73 NW13      29.44R
MINNEAPOLIS    CLOUDY    57  45  64 NW15      29.40R
$$

  *****  WEATHER ACROSS SOUTH DAKOTA  *****

CITY           SKY/WX    TMP DP  RH WIND       PRES   REMARKS
SIOUX FALLS    FAIR      58  42  55 NW32G47   29.60R
BROOKINGS      FAIR      51  39  63 NW25G37   29.62R
WATERTOWN      FAIR      50  38  63 NW17G26   29.63R
HURON          FAIR      56  32  40 N25G37    29.69R
SISSETON         N/A     53  36  52 NW24G32   29.57R
ABERDEEN       FAIR      54  35  48 NW23G29   29.68R
MITCHELL       FAIR      57  35  43 NW25G38   29.70R
PIERRE         FAIR      57  37  47 NW17      29.74R
MOBRIDGE       PTSUNNY   57  37  47 NW17G31   29.69R
RAPID CITY     FAIR      54  24  31 NW25G32   29.86R
$$

  *****  SOME WEATHER IN NEARBY STATES *****

CITY           SKY/WX    TMP DP  RH WIND       PRES   REMARKS
GLASGOW MT     FAIR      49  29  46 NW13      29.79R
GREAT FALLS MT FAIR      46  19  34 SW29G38   29.88S
CHEYENNE WY    FAIR      55  29  36 NW21G33   29.93R
SCOTTSBLUFF NE FAIR      59  26  28 N16       29.88S
OMAHA NE       FAIR      68  38  33 N29G40    29.59R
DES MOINES IA  PTSUNNY   67  41  38 NW25G37   29.51R
DAVENPORT IA   FAIR      69  39  33 SW17G24   29.42F
CHICAGO IL     FAIR      63  38  39 S21G32    29.46F
EAU CLAIRE WI  CLOUDY    55  39  54 W6        29.37R
LA CROSSE WI   FAIR      62  41  46 W13       29.38R
$$

  *****  SOME NATIONAL WEATHER *****

CITY           SKY/WX    TMP DP  RH WIND       PRES   REMARKS
LA GUARDIA NY  FAIR      51  21  30 SW6       29.95F
RALEIGH NC     FAIR      56  23  27 CALM      29.97F
ATLANTA GA     FAIR      62  42  47 S5        29.93F
NEW ORLEANS LA FAIR      65  31  28 VRB5      29.98F
OKLAHOMA CITY  FAIR      78  35  21 S18G28    29.71F
ALBUQUERQUE NM FAIR      66  25  21 S7        30.02F
SALT LAKE CITY PTSUNNY   63  39  41 N10       30.07R
LOS ANGELES CA FAIR      75  57  53 W10       29.88F
BOISE ID       FAIR      52  31  44 NW6       30.11F
SEATTLE WA     CLOUDY    51  40  65 S14       30.08F
$$

*** WEATHER ACROSS MANITOBA...SASKATCHEWAN AND ONTARIO ***
                ***ONTARIO***

CITY           SKY/WX    TMP DP  RH WIND       PRES   REMARKS
GERALDTON      LGT RAIN  34  34 100 NW6       29.16R VSB 3/4
THUNDER BAY    MOCLDY    43  36  75 VRB2      29.22R
SIOUX LOOKOUT  CLOUDY    32  28  86 W8        29.25R WCI  25
TORONTO        MOCLDY    50  30  46 SW17      29.66F
BIG TROUT LK   FLURRIES  12   7  79 NW10      29.22R WCI  -1
PICKLE LAKE    FLURRIES  25  23  93 NW8       29.17R WCI  16
DRYDEN         CLOUDY    34  28  80 W24G33    29.30R WCI  21
KENORA         CLOUDY    34  27  75 NW16G31   29.36R WCI  23
$$
                *** MANITOBA***

CITY           SKY/WX    TMP DP  RH WIND       PRES   REMARKS
BRANDON        PTSUNNY   37  30  75 NW22      29.55R
DAUPHIN        MOSUNNY   25  21  86 NE18      29.56R WCI  11
ISLAND LAKE    FLURRIES   9   1  72 NW21      29.42R WCI -11
PILOT MOUND      N/A     41  32  70 NW28G36     N/A
THE PAS        MOCLDY    10   3  72 NW16G24   29.62R WCI  -7
THOMPSON       PTCLDY     3  -4  72 NW9       29.55R WCI -11
WINNIPEG       PTSUNNY   37  32  81 W15G21    29.46R
LYNN LAKE      CLEAR      1  -2  85 NW9       29.60R WCI -14
CHURCHILL      FLURRIES   5   3  92 W13       29.49R WCI -12
GILLAM         MOCLDY     0  -8  71 N13       29.48  WCI -18
$$
                ***SASKATCHEWAN***

CITY           SKY/WX    TMP DP  RH WIND       PRES   REMARKS
ESTEVAN        MOSUNNY   43  30  61 W26G33    29.68R
KINDERSLEY     MOSUNNY   36  30  80 W6        29.69R
LLOYDMINSTER   MOSUNNY   36  30  80 NW9       29.65R
PRINCE ALBERT  PTSUNNY   21  10  63 NW7       29.69R WCI  13
REGINA         PTSUNNY   37  32  81 W13       29.67R
YORKTON        MOSUNNY   28  23  80 NW12G17   29.62R WC


USA.gov is the U.S. government's official web portal to all federal, state and local government web resources and services.